Medford, WI

8:25 AM CST on December 04, 2016 (GMT -0600)
Taylor County

Weather History for KMDZ - October, 2014

Change the Weather History Date:

Sunday, October 26, 2014

  Actual Average Record
Temperature  
Mean Temperature 42 °F -  
Max Temperature 57 °F 50 °F 77 °F (1989)
Min Temperature 28 °F 32 °F 10 °F (1962)
Degree Days  
Heating Degree Days 22    
Moisture  
Dew Point 28 °F    
Average Humidity 53    
Maximum Humidity 90    
Minimum Humidity 33    
Precipitation  
Precipitation 0.00 in - - ()
Sea Level Pressure  
Sea Level Pressure 29.92 in    
Wind  
Wind Speed 4 mph (SSW)    
Max Wind Speed 12 mph    
Max Gust Speed 17 mph    
Visibility 10 miles    
Events      
Averages and records for this station are not official NWS values.
T = Trace of Precipitation, MM = Missing Value Source: NWS Daily Summary

Daily Weather History Graph

Daily Weather History Graph

Search for Another Location

Airport or City:

Trip Planner

Search our weather history database for the weather conditions in past years. The results will help you decide how hot, cold, wet, or windy it might be!

Date:

Astronomy

Oct. 26, 2014 Rise Set
Actual Time 7:31 AM CDT 5:57 PM CDT
Civil Twilight 7:01 AM CDT 6:28 PM CDT
Nautical Twilight 6:26 AM CDT 7:02 PM CDT
Astronomical Twilight 5:52 AM CDT 7:36 PM CDT
Moon 10:14 AM CDT (10/26) 8:04 PM CDT (10/26)
Length of Visible Light 11h 26m
Length of Day
10h 26m
Waxing Crescent, 8% of the Moon is Illuminated
Oct 26
Waxing Crescent
Oct 30
First Quarter
Nov 6
Full
Nov 14
Last Quarter
Nov 22
New

Hourly Weather History & Observations

Time (CDT) Temp. Windchill Dew Point Humidity Pressure Visibility Wind Dir Wind Speed Gust Speed Precip Events Conditions
12:15 AM 41.4 °F 38.4 °F 25.3 °F 53% 29.98 in 10.0 mi West 4.6 mph - N/A   Clear
12:35 AM 40.5 °F 35.8 °F 25.2 °F 54% 29.98 in 10.0 mi West 6.9 mph - N/A   Clear
12:55 AM 39.7 °F 35.6 °F 25.3 °F 56% 29.98 in 10.0 mi West 5.8 mph - N/A   Clear
1:15 AM 39.7 °F 37.6 °F 24.8 °F 55% 29.98 in 10.0 mi WSW 3.5 mph - N/A   Clear
1:35 AM 36.1 °F 32.3 °F 26.1 °F 67% 29.98 in 10.0 mi West 4.6 mph - N/A   Clear
1:55 AM 35.4 °F 30.5 °F 25.7 °F 68% 29.98 in 10.0 mi West 5.8 mph - N/A   Clear
2:15 AM 37.9 °F 33.5 °F 25.3 °F 60% 29.98 in 10.0 mi West 5.8 mph - N/A   Clear
2:35 AM 37.8 °F 33.3 °F 25.7 °F 62% 29.98 in 10.0 mi West 5.8 mph - N/A   Clear
2:55 AM 36.1 °F 33.5 °F 25.5 °F 65% 29.99 in 10.0 mi West 3.5 mph - N/A   Clear
3:15 AM 36.7 °F 34.1 °F 25.3 °F 64% 29.99 in 10.0 mi West 3.5 mph - N/A   Clear
3:35 AM 34.3 °F 29.2 °F 25.5 °F 70% 29.99 in 10.0 mi West 5.8 mph - N/A   Clear
3:55 AM 36.0 °F 31.1 °F 25.5 °F 66% 29.98 in 10.0 mi West 5.8 mph - N/A   Clear
4:15 AM 34.0 °F 29.8 °F 25.5 °F 71% 30.00 in 10.0 mi West 4.6 mph - N/A   Clear
4:35 AM 36.0 °F 31.1 °F 25.5 °F 66% 30.00 in 10.0 mi West 5.8 mph - N/A   Clear
4:55 AM 36.0 °F 31.1 °F 25.5 °F 66% 30.00 in 10.0 mi West 5.8 mph - N/A   Clear
5:15 AM 34.7 °F 29.6 °F 25.5 °F 69% 30.00 in 10.0 mi West 5.8 mph - N/A   Clear
5:35 AM 33.1 °F 30.0 °F 25.0 °F 72% 30.00 in 10.0 mi WNW 3.5 mph - N/A   Clear
5:55 AM 32.7 °F 29.6 °F 25.3 °F 74% 30.00 in 10.0 mi West 3.5 mph - N/A   Clear
6:15 AM 32.9 °F 28.5 °F 25.2 °F 73% 30.00 in 10.0 mi West 4.6 mph - N/A   Clear
6:35 AM 32.2 °F 28.9 °F 25.0 °F 75% 30.00 in 10.0 mi West 3.5 mph - N/A   Clear
6:55 AM 33.1 °F 28.7 °F 25.5 °F 74% 30.00 in 10.0 mi West 4.6 mph - N/A   Clear
7:15 AM 30.9 °F - 25.3 °F 80% 30.00 in 10.0 mi Calm Calm - N/A   Clear
7:35 AM 28.9 °F - 24.6 °F 84% 30.00 in 10.0 mi Calm Calm - N/A   Clear
7:55 AM 28.8 °F - 26.2 °F 90% 30.00 in 10.0 mi Calm Calm - N/A   Clear
8:15 AM 31.5 °F - 26.2 °F 81% 30.00 in 10.0 mi Calm Calm - N/A   Clear
8:35 AM 33.3 °F - 29.8 °F 87% 30.00 in 10.0 mi Calm Calm - N/A   Clear
8:55 AM 36.0 °F - 31.6 °F 84% 30.00 in 10.0 mi Calm Calm - N/A   Clear
9:15 AM 40.5 °F - 30.2 °F 67% 30.01 in 10.0 mi Calm Calm - N/A   Clear
9:35 AM 43.0 °F 41.3 °F 30.0 °F 60% 30.00 in 10.0 mi West 3.5 mph - N/A   Clear
9:55 AM 44.6 °F - 31.3 °F 60% 30.00 in 10.0 mi Calm Calm - N/A   Clear
10:15 AM 46.2 °F - 31.1 °F 56% 30.00 in 10.0 mi Calm Calm - N/A   Clear
10:35 AM 48.2 °F - 30.7 °F 51% 29.98 in 10.0 mi Calm Calm - N/A   Clear
10:55 AM 49.6 °F - 29.3 °F 46% 29.98 in 10.0 mi Calm Calm - N/A   Clear
11:15 AM 50.9 °F - 28.9 °F 43% 29.97 in 10.0 mi Calm Calm - N/A   Clear
11:35 AM 52.0 °F - 29.1 °F 41% 29.97 in 10.0 mi Calm Calm - N/A   Clear
11:55 AM 52.7 °F - 28.2 °F 39% 29.96 in 10.0 mi West 4.6 mph - N/A   Clear
12:15 PM 53.1 °F - 28.2 °F 38% 29.95 in 10.0 mi West 3.5 mph - N/A   Clear
12:35 PM 54.3 °F - 29.8 °F 39% 29.95 in 10.0 mi WSW 3.5 mph - N/A   Clear
12:55 PM 54.5 °F - 28.6 °F 37% 29.94 in 10.0 mi Calm Calm - N/A   Clear
1:15 PM 54.7 °F - 28.6 °F 37% 29.93 in 10.0 mi Calm Calm - N/A   Clear
1:35 PM 55.6 °F - 28.2 °F 35% 29.92 in 10.0 mi Calm Calm - N/A   Clear
1:55 PM 55.2 °F - 29.1 °F 37% 29.91 in 10.0 mi Calm Calm - N/A   Clear
2:15 PM 56.1 °F - 29.5 °F 36% 29.90 in 3.0 mi SE 3.5 mph - N/A   Haze
2:35 PM 55.8 °F - 29.8 °F 37% 29.89 in 10.0 mi South 4.6 mph - N/A   Clear
2:55 PM 56.5 °F - 28.4 °F 34% 29.89 in 10.0 mi Calm Calm - N/A   Clear
3:15 PM 56.8 °F - 28.8 °F 34% 29.88 in 10.0 mi South 5.8 mph - N/A   Clear
3:35 PM 56.8 °F - 28.0 °F 33% 29.88 in 10.0 mi South 4.6 mph - N/A   Clear
3:55 PM 57.2 °F - 28.9 °F 34% 29.88 in 2.5 mi South 4.6 mph - N/A   Haze
4:15 PM 56.8 °F - 29.3 °F 35% 29.87 in 10.0 mi South 5.8 mph - N/A   Clear
4:35 PM 56.7 °F - 29.8 °F 36% 29.86 in 10.0 mi SSE 3.5 mph - N/A   Clear
4:55 PM 55.8 °F - 28.6 °F 35% 29.85 in 10.0 mi SE 4.6 mph - N/A   Clear
5:15 PM 54.5 °F - 30.4 °F 40% 29.84 in 10.0 mi SE 3.5 mph - N/A   Clear
5:35 PM 53.6 °F - 28.9 °F 39% 29.84 in 10.0 mi SE 3.5 mph - N/A   Clear
5:55 PM 52.5 °F - 28.2 °F 39% 29.83 in 10.0 mi ESE 3.5 mph - N/A   Clear
6:15 PM 50.9 °F - 28.4 °F 42% 29.83 in 10.0 mi ESE 4.6 mph - N/A   Clear
6:35 PM 50.4 °F - 28.2 °F 42% 29.83 in 10.0 mi ESE 4.6 mph - N/A   Clear
6:55 PM 49.6 °F - 27.9 °F 43% 29.83 in 10.0 mi ESE 6.9 mph - N/A   Clear
7:15 PM 49.3 °F - 27.9 °F 44% 29.82 in 10.0 mi ESE 5.8 mph - N/A   Clear
7:35 PM 49.5 °F - 28.2 °F 44% 29.81 in 10.0 mi ESE 5.8 mph - N/A   Clear
7:55 PM 49.5 °F - 28.6 °F 45% 29.81 in 10.0 mi SE 5.8 mph - N/A   Scattered Clouds
8:15 PM 50.4 °F - 28.6 °F 43% 29.80 in 10.0 mi SE 8.1 mph - N/A   Mostly Cloudy
8:35 PM 50.2 °F - 28.9 °F 44% 29.80 in 10.0 mi SE 9.2 mph - N/A   Mostly Cloudy
8:55 PM 50.0 °F - 29.3 °F 45% 29.79 in 10.0 mi ESE 8.1 mph - N/A   Scattered Clouds
9:15 PM 49.8 °F - 29.3 °F 45% 29.79 in 10.0 mi ESE 9.2 mph - N/A   Mostly Cloudy
9:35 PM 50.4 °F - 29.1 °F 44% 29.78 in 10.0 mi SE 9.2 mph 16.1 mph N/A   Scattered Clouds
9:55 PM 50.9 °F - 28.9 °F 43% 29.78 in 10.0 mi SE 8.1 mph - N/A   Mostly Cloudy
10:15 PM 50.0 °F - 29.5 °F 45% 29.78 in 10.0 mi SE 9.2 mph - N/A   Mostly Cloudy
10:35 PM 49.8 °F - 29.3 °F 45% 29.77 in 10.0 mi SE 9.2 mph - N/A   Scattered Clouds
10:55 PM 50.0 °F - 29.7 °F 46% 29.78 in 10.0 mi SSE 10.4 mph 16.1 mph N/A   Mostly Cloudy
11:15 PM 50.2 °F - 30.0 °F 46% 29.77 in 10.0 mi SSE 11.5 mph 17.3 mph N/A   Overcast
11:35 PM 50.9 °F - 30.0 °F 45% 29.76 in 10.0 mi SSE 11.5 mph - N/A   Overcast
11:55 PM 51.4 °F - 29.5 °F 43% 29.74 in 10.0 mi SSE 9.2 mph 16.1 mph N/A   Overcast